iso_date,Year,Hour,Min,DOY,POS_DOY,Lat,Lon,BP,Ts,Ta,has_bp,has_ts,has_ta,BuoyID,Buoy_Type,Buoy_Owner,Logistics,Hemisphere
2021-11-23T16:03:56Z,2021,16,4,327.6694,327.6694,63.228,-60.773,995.3,0.74,-999.0,yes,yes,no,300234068346620,BD2GHI,AOML,UNKNOWN,North
2021-11-23T17:03:59Z,2021,17,4,327.7111,327.7111,63.234,-60.775,993.9,0.75,-999.0,yes,yes,no,300234068346620,BD2GHI,AOML,UNKNOWN,North
2021-11-23T18:04:01Z,2021,18,4,327.7528,327.7528,63.241,-60.773,992.6,0.77,-999.0,yes,yes,no,300234068346620,BD2GHI,AOML,UNKNOWN,North
2021-11-23T19:03:56Z,2021,19,4,327.7944,327.7944,63.248,-60.768,991.6,0.76,-999.0,yes,yes,no,300234068346620,BD2GHI,AOML,UNKNOWN,North
2021-11-23T19:59:57Z,2021,20,0,327.8333,327.8333,63.254,-60.758,991.7,0.77,-999.0,yes,yes,no,300234068346620,BD2GHI,AOML,UNKNOWN,North
2021-11-23T21:00:00Z,2021,21,0,327.875,327.875,63.258,-60.743,994.2,0.76,-999.0,yes,yes,no,300234068346620,BD2GHI,AOML,UNKNOWN,North
2021-11-23T22:03:04Z,2021,22,3,327.9188,327.9188,63.26,-60.722,995.2,0.76,-999.0,yes,yes,no,300234068346620,BD2GHI,AOML,UNKNOWN,North
2021-11-23T22:59:57Z,2021,23,0,327.9583,327.9583,63.259,-60.702,996.0,0.77,-999.0,yes,yes,no,300234068346620,BD2GHI,AOML,UNKNOWN,North
2021-11-24T00:00:00Z,2021,0,0,328.0,328.0,63.253,-60.68,997.1,0.76,-999.0,yes,yes,no,300234068346620,BD2GHI,AOML,UNKNOWN,North
2021-11-24T01:03:56Z,2021,1,4,328.0444,328.0444,-90.0,-180.0,999.0,0.74,-999.0,yes,yes,no,300234068346620,BD2GHI,AOML,UNKNOWN,North
2021-11-24T02:03:59Z,2021,2,4,328.0861,328.0861,-90.0,-180.0,1000.5,0.75,-999.0,yes,yes,no,300234068346620,BD2GHI,AOML,UNKNOWN,North
2021-11-24T03:04:01Z,2021,3,4,328.1278,328.1278,-90.0,-180.0,1001.6,0.75,-999.0,yes,yes,no,300234068346620,BD2GHI,AOML,UNKNOWN,North
2021-11-24T04:03:56Z,2021,4,4,328.1694,328.1694,63.207,-60.604,1002.3,0.74,-999.0,yes,yes,no,300234068346620,BD2GHI,AOML,UNKNOWN,North
2021-11-24T05:00:57Z,2021,5,1,328.209,328.209,63.198,-60.599,1003.2,0.76,-999.0,yes,yes,no,300234068346620,BD2GHI,AOML,UNKNOWN,North
2021-11-24T06:00:00Z,2021,6,0,328.25,328.25,63.19,-60.595,1004.3,0.76,-999.0,yes,yes,no,300234068346620,BD2GHI,AOML,UNKNOWN,North
2021-11-24T07:00:02Z,2021,7,0,328.2917,328.2917,63.183,-60.594,1005.8,0.77,-999.0,yes,yes,no,300234068346620,BD2GHI,AOML,UNKNOWN,North
2021-11-24T07:59:57Z,2021,8,0,328.3333,328.3333,63.179,-60.591,1007.1,0.77,-999.0,yes,yes,no,300234068346620,BD2GHI,AOML,UNKNOWN,North
2021-11-24T09:01:00Z,2021,9,1,328.3757,328.3757,63.174,-60.589,1008.3,0.76,-999.0,yes,yes,no,300234068346620,BD2GHI,AOML,UNKNOWN,North
2021-11-24T10:00:02Z,2021,10,0,328.4167,328.4167,63.17,-60.59,1009.8,0.75,-999.0,yes,yes,no,300234068346620,BD2GHI,AOML,UNKNOWN,North
2021-11-24T12:02:00Z,2021,12,2,328.5014,328.5014,63.159,-60.597,1012.3,0.74,-999.0,yes,yes,no,300234068346620,BD2GHI,AOML,UNKNOWN,North
2021-11-24T13:02:03Z,2021,13,2,328.5431,328.5431,63.15,-60.597,1013.6,0.46,-999.0,yes,yes,no,300234068346620,BD2GHI,AOML,UNKNOWN,North
2021-11-24T13:59:57Z,2021,14,0,328.5833,328.5833,63.138,-60.592,1014.6,0.46,-999.0,yes,yes,no,300234068346620,BD2GHI,AOML,UNKNOWN,North
2021-11-24T15:00:00Z,2021,15,0,328.625,328.625,63.123,-60.589,1015.2,0.4,-999.0,yes,yes,no,300234068346620,BD2GHI,AOML,UNKNOWN,North
2021-11-24T16:00:02Z,2021,16,0,328.6667,328.6667,63.111,-60.6,1015.5,0.41,-999.0,yes,yes,no,300234068346620,BD2GHI,AOML,UNKNOWN,North
2021-11-24T17:00:57Z,2021,17,1,328.709,328.709,63.099,-60.615,1016.7,0.41,-999.0,yes,yes,no,300234068346620,BD2GHI,AOML,UNKNOWN,North
2021-11-24T18:00:00Z,2021,18,0,328.75,328.75,63.092,-60.627,1017.7,0.41,-999.0,yes,yes,no,300234068346620,BD2GHI,AOML,UNKNOWN,North
2021-11-24T19:01:03Z,2021,19,1,328.7924,328.7924,63.088,-60.64,1018.4,0.43,-999.0,yes,yes,no,300234068346620,BD2GHI,AOML,UNKNOWN,North
2021-11-24T19:59:57Z,2021,20,0,328.8333,328.8333,63.088,-60.652,1018.9,0.42,-999.0,yes,yes,no,300234068346620,BD2GHI,AOML,UNKNOWN,North
2021-11-24T21:00:00Z,2021,21,0,328.875,328.875,63.09,-60.662,1019.7,0.42,-999.0,yes,yes,no,300234068346620,BD2GHI,AOML,UNKNOWN,North
2021-11-24T22:00:02Z,2021,22,0,328.9167,328.9167,63.09,-60.665,1020.3,0.42,-999.0,yes,yes,no,300234068346620,BD2GHI,AOML,UNKNOWN,North
2021-11-24T22:59:57Z,2021,23,0,328.9583,328.9583,63.086,-60.667,1020.6,0.42,-999.0,yes,yes,no,300234068346620,BD2GHI,AOML,UNKNOWN,North
2021-11-25T00:00:00Z,2021,0,0,329.0,329.0,63.078,-60.664,1020.8,0.42,-999.0,yes,yes,no,300234068346620,BD2GHI,AOML,UNKNOWN,North
2021-11-25T01:00:02Z,2021,1,0,329.0417,329.0417,63.065,-60.662,1021.4,0.42,-999.0,yes,yes,no,300234068346620,BD2GHI,AOML,UNKNOWN,North
2021-11-25T02:03:59Z,2021,2,4,329.0861,329.0861,63.05,-60.666,1021.5,0.42,-999.0,yes,yes,no,300234068346620,BD2GHI,AOML,UNKNOWN,North
2021-11-25T03:01:00Z,2021,3,1,329.1257,329.1257,63.037,-60.67,1021.3,0.41,-999.0,yes,yes,no,300234068346620,BD2GHI,AOML,UNKNOWN,North
2021-11-25T04:00:02Z,2021,4,0,329.1667,329.1667,63.024,-60.678,1021.8,0.5,-999.0,yes,yes,no,300234068346620,BD2GHI,AOML,UNKNOWN,North
2021-11-25T05:00:57Z,2021,5,1,329.209,329.209,63.011,-60.692,1022.6,0.57,-999.0,yes,yes,no,300234068346620,BD2GHI,AOML,UNKNOWN,North
2021-11-25T06:00:00Z,2021,6,0,329.25,329.25,63.001,-60.706,1022.5,0.58,-999.0,yes,yes,no,300234068346620,BD2GHI,AOML,UNKNOWN,North
2021-11-25T07:00:02Z,2021,7,0,329.2917,329.2917,62.996,-60.727,1023.5,0.58,-999.0,yes,yes,no,300234068346620,BD2GHI,AOML,UNKNOWN,North
2021-11-25T07:59:57Z,2021,8,0,329.3333,329.3333,62.994,-60.746,1023.2,0.56,-999.0,yes,yes,no,300234068346620,BD2GHI,AOML,UNKNOWN,North
2021-11-25T09:00:00Z,2021,9,0,329.375,329.375,62.994,-60.761,1023.3,0.56,-999.0,yes,yes,no,300234068346620,BD2GHI,AOML,UNKNOWN,North
2021-11-25T10:00:02Z,2021,10,0,329.4167,329.4167,62.995,-60.771,1023.2,0.55,-999.0,yes,yes,no,300234068346620,BD2GHI,AOML,UNKNOWN,North
2021-11-25T12:00:00Z,2021,12,0,329.5,329.5,62.989,-60.775,1023.2,0.53,-999.0,yes,yes,no,300234068346620,BD2GHI,AOML,UNKNOWN,North
2021-11-25T13:00:02Z,2021,13,0,329.5417,329.5417,62.98,-60.78,1023.2,0.52,-999.0,yes,yes,no,300234068346620,BD2GHI,AOML,UNKNOWN,North
2021-11-25T13:59:57Z,2021,14,0,329.5833,329.5833,62.966,-60.794,1023.3,0.53,-999.0,yes,yes,no,300234068346620,BD2GHI,AOML,UNKNOWN,North
2021-11-25T15:00:00Z,2021,15,0,329.625,329.625,62.952,-60.813,1023.0,0.54,-999.0,yes,yes,no,300234068346620,BD2GHI,AOML,UNKNOWN,North
2021-11-25T18:00:00Z,2021,18,0,329.75,329.75,62.935,-60.884,1021.5,0.43,-999.0,yes,yes,no,300234068346620,BD2GHI,AOML,UNKNOWN,North
2021-11-25T19:00:02Z,2021,19,0,329.7917,329.7917,62.937,-60.903,1021.3,0.42,-999.0,yes,yes,no,300234068346620,BD2GHI,AOML,UNKNOWN,North
2021-11-25T19:59:57Z,2021,20,0,329.8333,329.8333,62.941,-60.922,1021.5,0.4,-999.0,yes,yes,no,300234068346620,BD2GHI,AOML,UNKNOWN,North
2021-11-25T21:00:00Z,2021,21,0,329.875,329.875,62.945,-60.939,1021.2,0.38,-999.0,yes,yes,no,300234068346620,BD2GHI,AOML,UNKNOWN,North
2021-11-25T22:00:02Z,2021,22,0,329.9167,329.9167,62.946,-60.954,1020.7,0.42,-999.0,yes,yes,no,300234068346620,BD2GHI,AOML,UNKNOWN,North
2021-11-25T22:59:57Z,2021,23,0,329.9583,329.9583,62.946,-60.965,1019.9,0.45,-999.0,yes,yes,no,300234068346620,BD2GHI,AOML,UNKNOWN,North
2021-11-26T00:00:00Z,2021,0,0,330.0,330.0,62.943,-60.974,1019.2,0.43,-999.0,yes,yes,no,300234068346620,BD2GHI,AOML,UNKNOWN,North
2021-11-26T01:00:02Z,2021,1,0,330.0417,330.0417,62.936,-60.981,1018.9,0.47,-999.0,yes,yes,no,300234068346620,BD2GHI,AOML,UNKNOWN,North
2021-11-26T01:59:57Z,2021,2,0,330.0833,330.0833,62.926,-60.991,1018.3,0.49,-999.0,yes,yes,no,300234068346620,BD2GHI,AOML,UNKNOWN,North
2021-11-26T03:00:00Z,2021,3,0,330.125,330.125,62.914,-61.0,1017.7,0.5,-999.0,yes,yes,no,300234068346620,BD2GHI,AOML,UNKNOWN,North
2021-11-26T04:00:02Z,2021,4,0,330.1667,330.1667,62.903,-61.012,1017.2,0.52,-999.0,yes,yes,no,300234068346620,BD2GHI,AOML,UNKNOWN,North
2021-11-26T04:59:57Z,2021,5,0,330.2083,330.2083,62.895,-61.024,1016.9,0.51,-999.0,yes,yes,no,300234068346620,BD2GHI,AOML,UNKNOWN,North
2021-11-26T06:00:00Z,2021,6,0,330.25,330.25,62.889,-61.04,1016.9,0.51,-999.0,yes,yes,no,300234068346620,BD2GHI,AOML,UNKNOWN,North
2021-11-26T07:00:02Z,2021,7,0,330.2917,330.2917,62.885,-61.051,1016.7,0.5,-999.0,yes,yes,no,300234068346620,BD2GHI,AOML,UNKNOWN,North
2021-11-26T07:59:57Z,2021,8,0,330.3333,330.3333,62.882,-61.061,1016.8,0.49,-999.0,yes,yes,no,300234068346620,BD2GHI,AOML,UNKNOWN,North
2021-11-26T09:00:00Z,2021,9,0,330.375,330.375,62.878,-61.072,1016.5,0.43,-999.0,yes,yes,no,300234068346620,BD2GHI,AOML,UNKNOWN,North
2021-11-26T10:00:02Z,2021,10,0,330.4167,330.4167,62.871,-61.091,1016.6,0.28,-999.0,yes,yes,no,300234068346620,BD2GHI,AOML,UNKNOWN,North
2021-11-26T12:00:00Z,2021,12,0,330.5,330.5,62.856,-61.139,1016.6,0.35,-999.0,yes,yes,no,300234068346620,BD2GHI,AOML,UNKNOWN,North
2021-11-26T13:00:02Z,2021,13,0,330.5417,330.5417,62.848,-61.174,1016.4,0.45,-999.0,yes,yes,no,300234068346620,BD2GHI,AOML,UNKNOWN,North
2021-11-26T13:59:57Z,2021,14,0,330.5833,330.5833,62.843,-61.206,1016.6,0.49,-999.0,yes,yes,no,300234068346620,BD2GHI,AOML,UNKNOWN,North
2021-11-26T15:00:00Z,2021,15,0,330.625,330.625,62.837,-61.234,1016.1,0.5,-999.0,yes,yes,no,300234068346620,BD2GHI,AOML,UNKNOWN,North
2021-11-26T16:00:02Z,2021,16,0,330.6667,330.6667,62.834,-61.259,1015.6,0.51,-999.0,yes,yes,no,300234068346620,BD2GHI,AOML,UNKNOWN,North
2021-11-26T17:00:57Z,2021,17,1,330.709,330.709,62.831,-61.283,1015.4,0.53,-999.0,yes,yes,no,300234068346620,BD2GHI,AOML,UNKNOWN,North
2021-11-26T18:00:00Z,2021,18,0,330.75,330.75,62.83,-61.3,1015.0,0.53,-999.0,yes,yes,no,300234068346620,BD2GHI,AOML,UNKNOWN,North
2021-11-26T19:00:02Z,2021,19,0,330.7917,330.7917,62.833,-61.314,1015.0,0.53,-999.0,yes,yes,no,300234068346620,BD2GHI,AOML,UNKNOWN,North
2021-11-26T19:59:57Z,2021,20,0,330.8333,330.8333,62.836,-61.321,1014.8,0.53,-999.0,yes,yes,no,300234068346620,BD2GHI,AOML,UNKNOWN,North
2021-11-26T21:00:00Z,2021,21,0,330.875,330.875,62.837,-61.329,1014.7,0.53,-999.0,yes,yes,no,300234068346620,BD2GHI,AOML,UNKNOWN,North
2021-11-26T22:01:03Z,2021,22,1,330.9174,330.9174,62.835,-61.338,1014.0,0.54,-999.0,yes,yes,no,300234068346620,BD2GHI,AOML,UNKNOWN,North
2021-11-26T22:59:57Z,2021,23,0,330.9583,330.9583,62.831,-61.35,1013.6,0.52,-999.0,yes,yes,no,300234068346620,BD2GHI,AOML,UNKNOWN,North
2021-11-27T00:00:00Z,2021,0,0,331.0,331.0,62.826,-61.366,1013.0,0.53,-999.0,yes,yes,no,300234068346620,BD2GHI,AOML,UNKNOWN,North
2021-11-27T01:00:02Z,2021,1,0,331.0417,331.0417,62.822,-61.386,1012.3,0.57,-999.0,yes,yes,no,300234068346620,BD2GHI,AOML,UNKNOWN,North
2021-11-27T02:00:57Z,2021,2,1,331.084,331.084,62.814,-61.403,1011.5,0.56,-999.0,yes,yes,no,300234068346620,BD2GHI,AOML,UNKNOWN,North
2021-11-27T03:02:00Z,2021,3,2,331.1264,331.1264,62.807,-61.423,1010.9,0.57,-999.0,yes,yes,no,300234068346620,BD2GHI,AOML,UNKNOWN,North
2021-11-27T04:00:02Z,2021,4,0,331.1667,331.1667,62.801,-61.438,1010.6,0.56,-999.0,yes,yes,no,300234068346620,BD2GHI,AOML,UNKNOWN,North
2021-11-27T05:03:59Z,2021,5,4,331.2111,331.2111,62.793,-61.445,1009.6,0.55,-999.0,yes,yes,no,300234068346620,BD2GHI,AOML,UNKNOWN,North
2021-11-27T06:04:01Z,2021,6,4,331.2528,331.2528,62.785,-61.446,1009.1,0.52,-999.0,yes,yes,no,300234068346620,BD2GHI,AOML,UNKNOWN,North
2021-11-27T07:00:02Z,2021,7,0,331.2917,331.2917,62.779,-61.454,1008.5,0.52,-999.0,yes,yes,no,300234068346620,BD2GHI,AOML,UNKNOWN,North
2021-11-27T07:59:57Z,2021,8,0,331.3333,331.3333,62.771,-61.461,1007.8,0.54,-999.0,yes,yes,no,300234068346620,BD2GHI,AOML,UNKNOWN,North
2021-11-27T09:00:00Z,2021,9,0,331.375,331.375,62.764,-61.469,1007.3,0.57,-999.0,yes,yes,no,300234068346620,BD2GHI,AOML,UNKNOWN,North
2021-11-27T10:00:02Z,2021,10,0,331.4167,331.4167,62.755,-61.478,1006.5,0.56,-999.0,yes,yes,no,300234068346620,BD2GHI,AOML,UNKNOWN,North
2021-11-27T13:03:04Z,2021,13,3,331.5438,331.5438,62.726,-61.54,1003.9,0.55,-999.0,yes,yes,no,300234068346620,BD2GHI,AOML,UNKNOWN,North
2021-11-27T13:59:57Z,2021,14,0,331.5833,331.5833,62.717,-61.574,1004.3,0.54,-999.0,yes,yes,no,300234068346620,BD2GHI,AOML,UNKNOWN,North
2021-11-27T15:01:00Z,2021,15,1,331.6257,331.6257,62.71,-61.609,1002.5,0.54,-999.0,yes,yes,no,300234068346620,BD2GHI,AOML,UNKNOWN,North
2021-11-27T16:03:56Z,2021,16,4,331.6694,331.6694,62.706,-61.646,1001.5,0.52,-999.0,yes,yes,no,300234068346620,BD2GHI,AOML,UNKNOWN,North
2021-11-27T17:02:58Z,2021,17,3,331.7104,331.7104,62.705,-61.666,1000.5,0.51,-999.0,yes,yes,no,300234068346620,BD2GHI,AOML,UNKNOWN,North
2021-11-27T18:04:01Z,2021,18,4,331.7528,331.7528,62.707,-61.683,1000.3,0.52,-999.0,yes,yes,no,300234068346620,BD2GHI,AOML,UNKNOWN,North
2021-11-27T19:03:04Z,2021,19,3,331.7938,331.7938,62.703,-61.708,999.8,0.5,-999.0,yes,yes,no,300234068346620,BD2GHI,AOML,UNKNOWN,North
2021-11-27T19:59:57Z,2021,20,0,331.8333,331.8333,62.706,-61.716,999.5,0.52,-999.0,yes,yes,no,300234068346620,BD2GHI,AOML,UNKNOWN,North
2021-11-27T21:00:00Z,2021,21,0,331.875,331.875,62.71,-61.719,999.2,0.5,-999.0,yes,yes,no,300234068346620,BD2GHI,AOML,UNKNOWN,North
2021-11-27T22:00:02Z,2021,22,0,331.9167,331.9167,62.71,-61.721,999.1,0.51,-999.0,yes,yes,no,300234068346620,BD2GHI,AOML,UNKNOWN,North
2021-11-27T23:01:58Z,2021,23,2,331.9597,331.9597,62.702,-61.729,998.6,0.52,-999.0,yes,yes,no,300234068346620,BD2GHI,AOML,UNKNOWN,North
2021-11-28T00:01:00Z,2021,0,1,332.0007,332.0007,62.693,-61.746,998.3,0.51,-999.0,yes,yes,no,300234068346620,BD2GHI,AOML,UNKNOWN,North
2021-11-28T01:02:03Z,2021,1,2,332.0431,332.0431,62.684,-61.769,998.0,0.5,-999.0,yes,yes,no,300234068346620,BD2GHI,AOML,UNKNOWN,North
2021-11-28T01:59:57Z,2021,2,0,332.0833,332.0833,62.675,-61.797,997.4,0.49,-999.0,yes,yes,no,300234068346620,BD2GHI,AOML,UNKNOWN,North
2021-11-28T03:00:00Z,2021,3,0,332.125,332.125,62.668,-61.831,997.3,0.49,-999.0,yes,yes,no,300234068346620,BD2GHI,AOML,UNKNOWN,North
2021-11-28T04:01:03Z,2021,4,1,332.1674,332.1674,62.662,-61.863,997.4,0.48,-999.0,yes,yes,no,300234068346620,BD2GHI,AOML,UNKNOWN,North
2021-11-28T05:01:58Z,2021,5,2,332.2097,332.2097,62.66,-61.887,997.3,0.43,-999.0,yes,yes,no,300234068346620,BD2GHI,AOML,UNKNOWN,North
2021-11-28T06:02:00Z,2021,6,2,332.2514,332.2514,62.658,-61.902,996.3,0.42,-999.0,yes,yes,no,300234068346620,BD2GHI,AOML,UNKNOWN,North
2021-11-28T07:00:02Z,2021,7,0,332.2917,332.2917,62.655,-61.909,996.6,0.41,-999.0,yes,yes,no,300234068346620,BD2GHI,AOML,UNKNOWN,North
2021-11-28T07:59:57Z,2021,8,0,332.3333,332.3333,62.648,-61.91,996.0,0.4,-999.0,yes,yes,no,300234068346620,BD2GHI,AOML,UNKNOWN,North
2021-11-28T09:00:00Z,2021,9,0,332.375,332.375,62.638,-61.913,995.7,0.4,-999.0,yes,yes,no,300234068346620,BD2GHI,AOML,UNKNOWN,North
2021-11-28T10:00:02Z,2021,10,0,332.4167,332.4167,62.627,-61.919,996.6,0.4,-999.0,yes,yes,no,300234068346620,BD2GHI,AOML,UNKNOWN,North
2021-11-28T11:00:57Z,2021,11,1,332.459,332.459,62.613,-61.934,996.0,0.41,-999.0,yes,yes,no,300234068346620,BD2GHI,AOML,UNKNOWN,North
2021-11-28T12:00:00Z,2021,12,0,332.5,332.5,62.599,-61.961,994.8,0.41,-999.0,yes,yes,no,300234068346620,BD2GHI,AOML,UNKNOWN,North
2021-11-28T13:01:03Z,2021,13,1,332.5424,332.5424,62.587,-62.002,994.0,0.41,-999.0,yes,yes,no,300234068346620,BD2GHI,AOML,UNKNOWN,North
2021-11-28T13:59:57Z,2021,14,0,332.5833,332.5833,62.579,-62.045,992.9,0.41,-999.0,yes,yes,no,300234068346620,BD2GHI,AOML,UNKNOWN,North
2021-11-28T15:00:00Z,2021,15,0,332.625,332.625,62.57,-62.093,990.7,0.41,-999.0,yes,yes,no,300234068346620,BD2GHI,AOML,UNKNOWN,North
2021-11-28T16:03:56Z,2021,16,4,332.6694,332.6694,62.567,-62.143,989.1,0.41,-999.0,yes,yes,no,300234068346620,BD2GHI,AOML,UNKNOWN,North
2021-11-28T16:59:57Z,2021,17,0,332.7083,332.7083,62.566,-62.183,987.1,0.42,-999.0,yes,yes,no,300234068346620,BD2GHI,AOML,UNKNOWN,North
2021-11-28T18:00:00Z,2021,18,0,332.75,332.75,62.567,-62.216,985.8,0.42,-999.0,yes,yes,no,300234068346620,BD2GHI,AOML,UNKNOWN,North
2021-11-28T19:00:02Z,2021,19,0,332.7917,332.7917,62.566,-62.24,985.0,0.43,-999.0,yes,yes,no,300234068346620,BD2GHI,AOML,UNKNOWN,North
2021-11-28T19:59:57Z,2021,20,0,332.8333,332.8333,62.562,-62.258,983.2,0.43,-999.0,yes,yes,no,300234068346620,BD2GHI,AOML,UNKNOWN,North
2021-11-28T21:00:00Z,2021,21,0,332.875,332.875,62.561,-62.273,982.4,0.44,-999.0,yes,yes,no,300234068346620,BD2GHI,AOML,UNKNOWN,North
2021-11-28T22:00:02Z,2021,22,0,332.9167,332.9167,62.556,-62.287,981.6,0.46,-999.0,yes,yes,no,300234068346620,BD2GHI,AOML,UNKNOWN,North
2021-11-28T22:59:57Z,2021,23,0,332.9583,332.9583,62.55,-62.303,980.8,0.48,-999.0,yes,yes,no,300234068346620,BD2GHI,AOML,UNKNOWN,North
2021-11-29T00:00:00Z,2021,0,0,333.0,333.0,62.545,-62.327,980.7,0.5,-999.0,yes,yes,no,300234068346620,BD2GHI,AOML,UNKNOWN,North
2021-11-29T01:00:02Z,2021,1,0,333.0417,333.0417,62.543,-62.352,981.7,0.49,-999.0,yes,yes,no,300234068346620,BD2GHI,AOML,UNKNOWN,North
2021-11-29T01:59:57Z,2021,2,0,333.0833,333.0833,62.547,-62.383,981.6,0.49,-999.0,yes,yes,no,300234068346620,BD2GHI,AOML,UNKNOWN,North
2021-11-29T03:00:00Z,2021,3,0,333.125,333.125,62.552,-62.41,982.3,0.5,-999.0,yes,yes,no,300234068346620,BD2GHI,AOML,UNKNOWN,North
2021-11-29T04:00:02Z,2021,4,0,333.1667,333.1667,62.558,-62.433,982.4,0.52,-999.0,yes,yes,no,300234068346620,BD2GHI,AOML,UNKNOWN,North
2021-11-29T05:00:57Z,2021,5,1,333.209,333.209,62.562,-62.45,982.5,0.51,-999.0,yes,yes,no,300234068346620,BD2GHI,AOML,UNKNOWN,North
2021-11-29T06:02:00Z,2021,6,2,333.2514,333.2514,62.565,-62.457,982.8,0.49,-999.0,yes,yes,no,300234068346620,BD2GHI,AOML,UNKNOWN,North
2021-11-29T07:00:02Z,2021,7,0,333.2917,333.2917,62.564,-62.46,982.7,0.42,-999.0,yes,yes,no,300234068346620,BD2GHI,AOML,UNKNOWN,North
2021-11-29T08:00:57Z,2021,8,1,333.334,333.334,62.563,-62.466,983.0,0.29,-999.0,yes,yes,no,300234068346620,BD2GHI,AOML,UNKNOWN,North
2021-11-29T09:00:00Z,2021,9,0,333.375,333.375,62.56,-62.465,983.3,0.29,-999.0,yes,yes,no,300234068346620,BD2GHI,AOML,UNKNOWN,North
2021-11-29T10:01:03Z,2021,10,1,333.4174,333.4174,62.555,-62.465,983.8,0.27,-999.0,yes,yes,no,300234068346620,BD2GHI,AOML,UNKNOWN,North
2021-11-29T13:00:02Z,2021,13,0,333.5417,333.5417,62.526,-62.537,984.9,-0.65,-999.0,yes,yes,no,300234068346620,BD2GHI,AOML,UNKNOWN,North
2021-11-29T13:59:57Z,2021,14,0,333.5833,333.5833,62.518,-62.589,985.3,-0.65,-999.0,yes,yes,no,300234068346620,BD2GHI,AOML,UNKNOWN,North
2021-11-29T15:00:00Z,2021,15,0,333.625,333.625,62.51,-62.645,985.7,-0.64,-999.0,yes,yes,no,300234068346620,BD2GHI,AOML,UNKNOWN,North
2021-11-29T16:00:02Z,2021,16,0,333.6667,333.6667,62.493,-62.685,986.2,-0.62,-999.0,yes,yes,no,300234068346620,BD2GHI,AOML,UNKNOWN,North
2021-11-29T16:59:57Z,2021,17,0,333.7083,333.7083,62.48,-62.693,986.7,-0.43,-999.0,yes,yes,no,300234068346620,BD2GHI,AOML,UNKNOWN,North
2021-11-29T18:01:00Z,2021,18,1,333.7507,333.7507,62.469,-62.7,987.5,-0.39,-999.0,yes,yes,no,300234068346620,BD2GHI,AOML,UNKNOWN,North
2021-11-29T19:02:03Z,2021,19,2,333.7931,333.7931,62.463,-62.697,988.4,-0.35,-999.0,yes,yes,no,300234068346620,BD2GHI,AOML,UNKNOWN,North
2021-11-29T19:59:57Z,2021,20,0,333.8333,333.8333,62.457,-62.696,989.6,-0.35,-999.0,yes,yes,no,300234068346620,BD2GHI,AOML,UNKNOWN,North
2021-11-29T21:00:00Z,2021,21,0,333.875,333.875,62.454,-62.697,990.7,-0.22,-999.0,yes,yes,no,300234068346620,BD2GHI,AOML,UNKNOWN,North
2021-11-29T22:00:02Z,2021,22,0,333.9167,333.9167,62.452,-62.697,992.0,-0.18,-999.0,yes,yes,no,300234068346620,BD2GHI,AOML,UNKNOWN,North
2021-11-29T23:00:57Z,2021,23,1,333.959,333.959,62.452,-62.694,993.2,-0.17,-999.0,yes,yes,no,300234068346620,BD2GHI,AOML,UNKNOWN,North
2021-11-30T00:01:00Z,2021,0,1,334.0007,334.0007,62.455,-62.698,994.3,-0.19,-999.0,yes,yes,no,300234068346620,BD2GHI,AOML,UNKNOWN,North
2021-11-30T01:00:02Z,2021,1,0,334.0417,334.0417,62.458,-62.699,995.6,-0.22,-999.0,yes,yes,no,300234068346620,BD2GHI,AOML,UNKNOWN,North
2021-11-30T02:01:58Z,2021,2,2,334.0847,334.0847,62.461,-62.7,996.5,-0.2,-999.0,yes,yes,no,300234068346620,BD2GHI,AOML,UNKNOWN,North
2021-11-30T03:00:00Z,2021,3,0,334.125,334.125,62.463,-62.708,997.7,-0.2,-999.0,yes,yes,no,300234068346620,BD2GHI,AOML,UNKNOWN,North
2021-11-30T04:01:03Z,2021,4,1,334.1674,334.1674,62.462,-62.726,998.5,-0.2,-999.0,yes,yes,no,300234068346620,BD2GHI,AOML,UNKNOWN,North
2021-11-30T05:03:59Z,2021,5,4,334.2111,334.2111,62.459,-62.757,999.4,-0.21,-999.0,yes,yes,no,300234068346620,BD2GHI,AOML,UNKNOWN,North
2021-11-30T06:00:00Z,2021,6,0,334.25,334.25,62.456,-62.779,1000.1,-0.23,-999.0,yes,yes,no,300234068346620,BD2GHI,AOML,UNKNOWN,North
2021-11-30T07:00:02Z,2021,7,0,334.2917,334.2917,62.452,-62.803,1001.0,-0.21,-999.0,yes,yes,no,300234068346620,BD2GHI,AOML,UNKNOWN,North
2021-11-30T07:59:57Z,2021,8,0,334.3333,334.3333,62.451,-62.823,1001.9,-0.2,-999.0,yes,yes,no,300234068346620,BD2GHI,AOML,UNKNOWN,North
2021-11-30T09:03:01Z,2021,9,3,334.3771,334.3771,62.452,-62.83,1002.8,-0.12,-999.0,yes,yes,no,300234068346620,BD2GHI,AOML,UNKNOWN,North
2021-11-30T10:00:02Z,2021,10,0,334.4167,334.4167,62.451,-62.827,1003.9,-0.45,-999.0,yes,yes,no,300234068346620,BD2GHI,AOML,UNKNOWN,North
2021-11-30T12:02:00Z,2021,12,2,334.5014,334.5014,62.435,-62.817,1005.2,-0.66,-999.0,yes,yes,no,300234068346620,BD2GHI,AOML,UNKNOWN,North
2021-11-30T13:01:03Z,2021,13,1,334.5424,334.5424,62.429,-62.827,1005.7,-0.68,-999.0,yes,yes,no,300234068346620,BD2GHI,AOML,UNKNOWN,North
2021-11-30T14:00:57Z,2021,14,1,334.584,334.584,62.425,-62.856,1006.3,-0.68,-999.0,yes,yes,no,300234068346620,BD2GHI,AOML,UNKNOWN,North
2021-11-30T15:04:01Z,2021,15,4,334.6278,334.6278,62.416,-62.896,1006.7,-0.69,-999.0,yes,yes,no,300234068346620,BD2GHI,AOML,UNKNOWN,North
2021-11-30T16:00:02Z,2021,16,0,334.6667,334.6667,62.408,-62.934,1006.5,-0.7,-999.0,yes,yes,no,300234068346620,BD2GHI,AOML,UNKNOWN,North
2021-11-30T16:59:57Z,2021,17,0,334.7083,334.7083,62.398,-62.972,1006.1,-0.69,-999.0,yes,yes,no,300234068346620,BD2GHI,AOML,UNKNOWN,North
2021-11-30T18:00:00Z,2021,18,0,334.75,334.75,62.389,-62.999,1006.1,-0.7,-999.0,yes,yes,no,300234068346620,BD2GHI,AOML,UNKNOWN,North
2021-11-30T19:00:02Z,2021,19,0,334.7917,334.7917,62.379,-63.021,1005.7,-0.72,-999.0,yes,yes,no,300234068346620,BD2GHI,AOML,UNKNOWN,North
2021-11-30T19:59:57Z,2021,20,0,334.8333,334.8333,62.371,-63.038,1005.8,-0.74,-999.0,yes,yes,no,300234068346620,BD2GHI,AOML,UNKNOWN,North
2021-11-30T21:00:00Z,2021,21,0,334.875,334.875,62.37,-63.04,1004.8,-0.76,-999.0,yes,yes,no,300234068346620,BD2GHI,AOML,UNKNOWN,North
2021-11-30T22:01:03Z,2021,22,1,334.9174,334.9174,62.37,-63.029,1004.2,-0.8,-999.0,yes,yes,no,300234068346620,BD2GHI,AOML,UNKNOWN,North
2021-11-30T22:59:57Z,2021,23,0,334.9583,334.9583,62.374,-63.009,1003.1,-0.73,-999.0,yes,yes,no,300234068346620,BD2GHI,AOML,UNKNOWN,North
2021-12-01T00:00:00Z,2021,0,0,335.0,335.0,62.381,-62.984,1001.6,-0.8,-999.0,yes,yes,no,300234068346620,BD2GHI,AOML,UNKNOWN,North
2021-12-01T01:00:02Z,2021,1,0,335.0417,335.0417,62.386,-62.967,1000.3,-0.77,-999.0,yes,yes,no,300234068346620,BD2GHI,AOML,UNKNOWN,North
2021-12-01T02:00:57Z,2021,2,1,335.084,335.084,62.394,-62.948,998.7,-0.81,-999.0,yes,yes,no,300234068346620,BD2GHI,AOML,UNKNOWN,North
2021-12-01T03:00:00Z,2021,3,0,335.125,335.125,62.394,-62.941,996.4,-0.78,-999.0,yes,yes,no,300234068346620,BD2GHI,AOML,UNKNOWN,North
2021-12-01T04:00:02Z,2021,4,0,335.1667,335.1667,62.389,-62.947,993.8,-0.79,-999.0,yes,yes,no,300234068346620,BD2GHI,AOML,UNKNOWN,North
2021-12-01T04:59:57Z,2021,5,0,335.2083,335.2083,62.381,-62.965,992.0,-0.79,-999.0,yes,yes,no,300234068346620,BD2GHI,AOML,UNKNOWN,North
2021-12-01T06:00:00Z,2021,6,0,335.25,335.25,62.371,-63.003,990.6,-0.74,-999.0,yes,yes,no,300234068346620,BD2GHI,AOML,UNKNOWN,North
2021-12-01T07:00:02Z,2021,7,0,335.2917,335.2917,62.365,-63.049,989.7,-0.66,-999.0,yes,yes,no,300234068346620,BD2GHI,AOML,UNKNOWN,North
2021-12-01T07:59:57Z,2021,8,0,335.3333,335.3333,62.361,-63.095,989.0,-0.65,-999.0,yes,yes,no,300234068346620,BD2GHI,AOML,UNKNOWN,North
2021-12-01T09:00:00Z,2021,9,0,335.375,335.375,62.361,-63.134,987.7,-0.61,-999.0,yes,yes,no,300234068346620,BD2GHI,AOML,UNKNOWN,North
2021-12-01T10:00:02Z,2021,10,0,335.4167,335.4167,62.364,-63.161,986.7,-0.63,-999.0,yes,yes,no,300234068346620,BD2GHI,AOML,UNKNOWN,North
2021-12-01T10:59:57Z,2021,11,0,335.4583,335.4583,62.368,-63.169,986.2,-0.66,-999.0,yes,yes,no,300234068346620,BD2GHI,AOML,UNKNOWN,North